Regional Weather Roundup
Issued by NWS

Home | Current Version | Previous Version | Text Only | Print | Product List | Glossary On
Versions: 1 2 3 4 5 6 7 8 9 10 11 12 13 14 15 16 17 18 19 20 21 22 23 24 25 26 27 28 29 30 31 32 33 34 35 36 37 38 39 40 41 42 43 44 45 46 47 48 49 50
000
ASUS46 KSEW 291610
RWRWA

WASHINGTON REGIONAL WEATHER ROUNDUP
NATIONAL WEATHER SERVICE SEATTLE WA
900 AM PDT WED JUL 29 2015

NOTE:"FAIR" INDICATES FEW OR NO CLOUDS BELOW 12,000 FEET WITH NO
SIGNIFICANT WEATHER AND/OR OBSTRUCTIONS TO VISIBILITY.

WAZ505-507>509-291700-
SEATTLE, TACOMA, EVERETT, AND VICINITY

CITY           SKY/WX    TMP DP  RH WIND       PRES   REMARKS
EVERETT        SUNNY     64  52  64 VRB3      30.22S
BOEING FIELD   MOSUNNY   71  53  52 CALM      30.20S
RENTON         SUNNY     67  55  65 NW5       30.19S
SEATAC AIRPORT MOSUNNY   71  51  49 N13       30.21S
JBLM-MCCHORD   SUNNY     68  54  60 NE5       30.20R
PUYALLUP       FAIR      68  54  60 CALM      30.21R
BREMERTON      SUNNY     68  54  60 NE9       30.23R
JBLM-FT LEWIS  SUNNY     67  54  63 CALM      30.19S
TACOMA NARROWS SUNNY     66  54  65 N7        30.20S
$$

WAZ001-503-506-510-514-515-291700-
NORTH INTERIOR

CITY           SKY/WX    TMP DP  RH WIND       PRES   REMARKS
BELLINGHAM     MOSUNNY   65  55  70 N3        30.21S
FRIDAY HARBOR  SUNNY     63  55  75 SE5       30.22S
EASTSOUND      SUNNY     63  55  77 N5        30.20S
PORT ANGELES   SUNNY     68  47  46 VRB3      30.21F
PORT TOWNSEND  FAIR      64  55  72 CALM      30.21S
NAS WHIDBEY    PTSUNNY   59  50  72 SW7       30.25S
ARLINGTON      SUNNY     66  52  59 CALM      30.22S
BURLINGTON     SUNNY     66  55  68 VRB3      30.21F
$$

WAZ020-022-039-040-504-511-512-291700-
SOUTHWEST INTERIOR

CITY           SKY/WX    TMP DP  RH WIND       PRES   REMARKS
SHELTON        SUNNY     70  53  54 NE6       30.18S
OLYMPIA        SUNNY     68  54  60 N7        30.20R
CHEHALIS       FAIR      66  57  72 N5        30.19S HAZE
KELSO          SUNNY     68  52  56 NW6       30.18F
VANCOUVER      SUNNY     70  52  52 NW5       30.13S
SCAPPOOSE, OR  SUNNY     72  52  49 NE10      30.13S
PORTLAND, OR   SUNNY     70  53  54 NW5       30.13F
$$

WAZ021-516-517-291700-
WASHINGTON COAST

CITY           SKY/WX    TMP DP  RH WIND       PRES   REMARKS
FORKS          SUNNY     63  57  81 CALM      30.19F
HOQUIAM        SUNNY     60  56  86 SE5       30.19S FOG
ASTORIA, OR    SUNNY     67  60  78 N3        30.15S
$$

WAZ019-023-024-040-518-519-291700-
CASCADE MOUNTAINS AND COLUMBIA GORGE

CITY           SKY/WX    TMP DP  RH WIND       PRES   REMARKS
TROUTDALE, OR  SUNNY     69  55  60 CALM      30.12S
THE DALLES, OR SUNNY     70  48  45 CALM      30.16F
$$

WAZ026-027-041>044-520-521-291700-
EAST SLOPES

CITY           SKY/WX    TMP DP  RH WIND       PRES   REMARKS
OMAK           SUNNY     70  38  31 E3        30.19F
WENATCHEE      SUNNY     70  46  42 W7        30.18S
ELLENSBURG     SUNNY     67  48  50 VRB6      30.21S
YAKIMA         SUNNY     73  43  33 W6        30.19S
$$

WAZ028-034-035-291700-
COLUMBIA BASIN

CITY           SKY/WX    TMP DP  RH WIND       PRES   REMARKS
EPHRATA        SUNNY     71  37  28 E5        30.18R
MOSES LAKE     SUNNY     68  45  43 CALM      30.19R
PASCO          SUNNY     70  46  42 CALM      30.18S
HERMISTON, OR  SUNNY     71  42  35 W6        30.17S
$$

WAZ036>038-291700-
NORTHEAST WASHINGTON

CITY           SKY/WX    TMP DP  RH WIND       PRES   REMARKS
SPOKANE GEIGER MOSUNNY   71  40  32 S6        30.22S
SPOKANE FELTS  SUNNY     68  48  48 N3        30.22F
FAIRCHILD AFB  SUNNY     71  40  31 S6        30.23R
COEURDALENE,ID SUNNY     68  45  42 SE8       30.23S
DEER PARK      SUNNY     67  43  41 CALM      30.24R
$$

WAZ029>033-291700-
SOUTHEAST WASHINGTON

CITY           SKY/WX    TMP DP  RH WIND       PRES   REMARKS
PULLMAN        SUNNY     70  42  36 SE8       30.26S
LEWISTON, ID   SUNNY     68  43  40 VRB3      30.23S
WALLA WALLA    SUNNY     76  37  24 CALM      30.18S
PENDLETON, OR  SUNNY     72  38  29 S6        30.19S
$$



USA.gov is the U.S. government's official web portal to all federal, state and local government web resources and services.